[Iaude] MPEC J58: 2024 JE1 [a=2.05,e=0.57,i=1.1,H=26.9]
    mpec at cfa.harvard.edu 
    mpec at cfa.harvard.edu
       
    Sat May  4 03:11:55 EDT 2024
    
    
  
M.P.E.C. 2024-J58                                   Issued 2024 May 4, 07:08 UT
     The Minor Planet Electronic Circulars contain information on unusual
         minor planets, routine data on comets and natural satellites,
         and occasional editorial announcements.  They are published
    on behalf of Division F of the International Astronomical Union by the
          Minor Planet Center, Smithsonian Astrophysical Observatory,
                          Cambridge, MA 02138, U.S.A.
			  
             Prepared using the Tamkin Foundation Computer Network
                              MPC at CFA.HARVARD.EDU
            URL https://www.minorplanetcenter.net/    ISSN 1523-6714
                                    2024 JE1                                    
Observations:
     K24J01E*KC2024 05 02.89912 14 14 11.02 +06 27 11.2          19.5 GXEJ058L51
     K24J01E KC2024 05 02.90036 14 14 12.68 +06 26 46.8          19.6 GXEJ058L51
     K24J01E KC2024 05 02.90159 14 14 14.54 +06 26 21.9          19.8 GXEJ058L51
     K24J01E KC2024 05 02.92039214 14 49.32 +06 20 03.9          20.5 GXEJ058I93
     K24J01E KC2024 05 02.92265914 14 52.53 +06 19 18.4          20.1 GXEJ058I93
     K24J01E KC2024 05 02.92491914 14 55.68 +06 18 33.6          20.3 GXEJ058I93
     K24J01E KB2024 05 02.94225314 15 19.99 +06 12 52.9          19.3 GXEJ058958
     K24J01E KB2024 05 02.94635314 15 25.68 +06 11 32.0          19.3 GXEJ058958
     K24J01E KB2024 05 02.95045914 15 31.29 +06 10 12.7          19.7 GXEJ058958
     K24J01E 1C2024 05 02.99865 14 16 34.34 +05 53 56.4          20.8 VXEJ058033
     K24J01E 1C2024 05 02.99909 14 16 34.95 +05 53 48.7          20.9 VXEJ058033
     K24J01E 1C2024 05 02.99952 14 16 35.52 +05 53 39.7          20.8 VXEJ058033
     K24J01E 1C2024 05 02.99994 14 16 36.08 +05 53 31.9          20.6 VXEJ058033
     K24J01E 1C2024 05 03.00045 14 16 36.83 +05 53 21.6          20.7 VXEJ058033
     K24J01E 1C2024 05 03.00100 14 16 37.57 +05 53 10.9          20.8 VXEJ058033
     K24J01E 1C2024 05 03.01452 14 16 55.90 +05 48 49.3          20.2 VXEJ058033
     K24J01E 1C2024 05 03.01494 14 16 56.48 +05 48 41.1          20.2 VXEJ058033
     K24J01E 1C2024 05 03.01537 14 16 57.08 +05 48 32.4          20.6 VXEJ058033
     K24J01E 1C2024 05 03.01579 14 16 57.63 +05 48 24.8          20.8 VXEJ058033
     K24J01E 1C2024 05 03.02435 14 17 09.25 +05 45 38.9          20.5 VXEJ058033
     K24J01E 1C2024 05 03.02479 14 17 09.82 +05 45 30.8          20.6 VXEJ058033
     K24J01E 1C2024 05 03.02522 14 17 10.39 +05 45 22.7          20.6 VXEJ058033
     K24J01E 1C2024 05 03.02565 14 17 10.97 +05 45 14.7          20.6 VXEJ058033
     K24J01E KB2024 05 03.03069314 17 32.129+05 49 13.37         20.6 VZEJ058Y05
     K24J01E KB2024 05 03.03597814 17 39.070+05 47 31.67         19.9 VZEJ058Y05
     K24J01E KB2024 05 03.04118314 17 45.830+05 45 52.96         20.2 VZEJ058Y05
     K24J01E KB2024 05 03.17384 14 20 47.772+04 59 54.28         19.8 GVEJ058734
     K24J01E KB2024 05 03.17868 14 20 53.870+04 58 25.18         19.9 GVEJ058734
     K24J01E KB2024 05 03.18353 14 20 59.971+04 56 56.11         19.8 GVEJ058734
     K24J01E KC2024 05 03.24816714 22 21.80 +04 37 58.5          19.9 GXEJ058858
     K24J01E KC2024 05 03.25499314 22 30.03 +04 35 58.2          20.3 GXEJ058858
     K24J01E mC2024 05 03.29609914 23 19.878+04 24 11.92         20.01GVEJ058I52
     K24J01E mC2024 05 03.29636114 23 20.188+04 24 07.56         19.83GVEJ058I52
     K24J01E mC2024 05 03.29662714 23 20.490+04 24 02.56         19.83GVEJ058I52
     K24J01E mC2024 05 03.29688914 23 20.800+04 23 58.31         20.25GVEJ058I52
     K24J01E KC2024 05 03.86417 14 34 11.03 +01 55 15.2          19.6 GXEJ058L51
     K24J01E KC2024 05 03.86571 14 34 12.44 +01 54 54.5          19.6 GXEJ058L51
     K24J01E KC2024 05 03.86726 14 34 13.92 +01 54 32.4          20.2 GXEJ058L51
     K24J01E KC2024 05 04.18323614 39 21.21 +00 44 41.6          21.1 GVEJ058H21
     K24J01E KC2024 05 04.18608214 39 23.62 +00 44 05.8          21.6 GVEJ058H21
     K24J01E KC2024 05 04.18892914 39 26.00 +00 43 30.1          21.3 GVEJ058H21
     K24J01E KC2024 05 04.19376814 39 30.04 +00 42 29.1          21.7 GVEJ058H21
Observer details:
033 Karl Schwarzschild Observatory, Tautenburg.  Observers S. Melnikov, C.
    Hogner, F. Ludwig, M. Hartmann, B. Stecklum.  Measurer B. Stecklum.
    1.34-m f/3 Schmidt + CCD.
734 Farpoint Observatory, Eskridge.  Observers D. Cromer, G. Hug, D. Goodin,
    R. Valentine, P. Lessig.  Measurer G. Hug.  0.69-m f/3.54 reflector + CMO.
858 Tebbutt Observatory, Edgewood.  Observer F. B. Zoltowski.  0.51-m f/8.1
    Schmidt-Cassegrain + CCD.
958 Observatoire de Dax.  Observer P. Dupouy.  0.50-m f/4.5 Reflector + CMO.
H21 Astronomical Research Observatory, Westfield.  Observer R. Holmes.
    Measurers T. Linder, R. Holmes, L. Horn.  0.81-m f/4.0 astrograph + CCD.
I52 Steward Observatory, Mt. Lemmon Station.  Observer V. F. Carvajal.
    Measurers T. Beuden, V. F. Carvajal, D. Fay, J. B. Fazekas, D. C. Fuls, A.
    R. Gibbs, A. D. Grauer, H. Groeller, J. K. Hogan, R. A. Kowalski, S. M.
    Larson, G. J. Leonard, D. Rankin, R. L. Seaman, F. C. Shelly, K. W.
    Wierzchos.  1.0-m prime focus + CCD.
I93 St Pardon de Conques.  Observer F. Losse.  0.40-m f/3.7 reflector + CCD.
L51 MARGO, Nauchnyi.  Observer G. Borisov.  0.50-m f/1.9 reflector + CCD.
Y05 SONEAR Wykrota-CEAMIG, Serra da Piedade.  Observers C. Jacques, A.
    Caetano, E. Pimentel.  Measurer C. Jacques.  0.45-m f/2.9 reflector + CMO.
Orbital elements:
2024 JE1                                                 Earth MOID = 0.0076 AU
Epoch 2024 Mar. 31.0 TT = JDT 2460400.5                 Veres                   
M   2.66831              (2000.0)            P               Q                  
n   0.33509935     Peri.  332.14949     -0.97533731     -0.22065869             
a   2.0528332      Node   195.10547     +0.20602357     -0.90171845             
e   0.5744193      Incl.    1.13993     +0.07919232     -0.37177086             
P   2.94           H   26.91          G   0.15           U   8                  
Residuals in seconds of arc
240502 L51  0.2+  1.0-    240503 033  0.8+  0.7-    240503 734 (1.2+  1.9-)
240502 L51  1.1-  0.4-    240503 033  0.2+  0.3-    240503 858  1.3+  0.9-
240502 L51  0.9+  0.5-    240503 033  0.3+  0.3-    240503 858  1.9+  1.0-
240502 I93  0.2-  0.1+    240503 033  0.6+  0.7-    240503 I52  0.1-  0.0
240502 I93  0.3+  0.2-    240503 033  0.3+  0.2-    240503 I52  0.0   0.2+
240502 I93  0.3+  0.0     240503 033  0.7+  0.9-    240503 I52  0.2-  0.2-
240502 958  0.1-  0.2+    240503 033  0.3+  0.5-    240503 I52  0.1-  0.1+
240502 958  0.4+  0.4+    240503 033  0.1+  0.3-    240503 L51  0.5+  1.4-
240502 958  0.3-  2.3+    240503 033  0.1+  0.1-    240503 L51  0.3-  0.4-
240502 033  0.3+  0.9-    240503 Y05  0.1-  0.1-    240503 L51  0.2-  0.7-
240502 033  0.5+  0.0     240503 Y05  0.3+  0.6-    240504 H21  0.1-  0.0
240502 033  0.3+  0.6-    240503 Y05  0.1-  0.2+    240504 H21  0.2+  0.0
240502 033  0.1+  0.3-    240503 734  0.4-  1.1+    240504 H21  0.0   0.1+
240503 033  0.9+  0.7-    240503 734  0.4+  0.5-    240504 H21  0.0   0.1-
Ephemeris:
2024 JE1                 a,e,i = 2.05, 0.57, 1                   q = 0.8736
Date    TT    R. A. (2000) Decl.     Delta      r    Elong.  Phase     V
2024 04 04    04 07 43.2 +19 58 42   0.1878  0.8894    49.4   121.4    28.0
...
2024 04 19    04 43 31.9 +24 51 15   0.07823 0.9493    43.7   133.1    27.3
...
2024 04 27    06 49 24.3 +38 48 14   0.02538 0.9957    64.2   114.5    23.4
...
2024 05 03    14 16 39.1 +05 57 18   0.02953 1.0354   157.6    21.8    20.4
2024 05 04    14 36 23.5 +01 27 08   0.03566 1.0424   162.5    16.9    20.7
2024 05 05    14 50 08.7 -01 43 06   0.04214 1.0494   165.5    13.9    20.9
...
2024 05 11    15 25 42.3 -09 54 50   0.08421 1.0933   171.4     7.9    22.3
...
2024 05 19    15 39 42.1 -13 14 23   0.1445  1.1554   173.4     5.8    23.5
...
2024 06 03    15 49 06.5 -15 36 39   0.2709  1.2782   165.3    11.6    25.3
M. P. C. Staff               (C) Copyright 2024 MPC           M.P.E.C. 2024-J58
    
    
More information about the Iaude
mailing list